Погода в Владикавказе

Погода в Владикавказе : погода сейчас, прогноз погоды и архив. Всё, что Вы хотите узнать о погоде в Владикавказе!

Поиск расширенной информации на нашем сайте:

Другие новости

Новости СМИ2

Главная страница сайта

Новости сайта

03.07.2017

Напоминаем, что на нашем специализированном сайте Метеоцентр.Азия вы можете получить высокодетализированные автоматические прогнозы погоды по пунктам России, СНГ и мира в авиационном формате (включающие направление и скорость ветра, видимость, явления погоды, количество и форму облачности, нижнюю и верхнюю границу облачности).

Рекомендуем: Интернет магазин вышивки и вязания пряжа http://www.kudel.ru.

Погода в Владикавказе - сегодня

Время (UTC), дата Ветер
(°,м/с) 
Видим.   Явления Облачность Т
(°С)
Тd
(°С)
f(%) Тe
(°С)
Pmin
(гПа)
dP
(гПа)
Po
(мм)
O2
(г/м3)
Тmin Tmax R s Состояние
почвы
03 19.11.17 тихо ()   10 км    ясно 
+3.1 -3 64 +3  1018.3  -0.4  701  279  +0.6         
06 19.11.17 100 (В) 20000 м    9/0 средняя, верхняя 
[Ac lent|Ci]
+8.5 -3.1 44 +10  1016.6  701  274           
09 19.11.17 010 (С) 20000 м    8/0 средняя, верхняя 
[Ac As|Ci]
+15.9 -4.2 25 +17  1012.4  -1.9  699  267           
12 19.11.17 320 (СЗ) 20000 м    4/0 средняя 
[Ac trans]
+14.5 -2.5 31 +16  1012.2  -0.6  699  268           
15 19.11.17 тихо ()   10 км    3/0 средняя 
[Ac trans]
+7.8 -0.5 56 +8  1014.1  0.1  699  274    +17.1       
18 19.11.17 тихо ()   10 км    ясно 
+6.6 -0.8 59 +7  1013.3  -1.1  698  275           
21 19.11.17 170 (Ю) 10 км    ясно 
+3.8 -0.9 71 +5  1013.1  -1  697  277           
00 20.11.17 310 (СЗ) 10 км    ясно 
+4 +1 81 +5  1013.1  0.2  697  277           
03 20.11.17 170 (Ю) 10 км    ясно 
+5.5 -0.2 67 +6  1011.9  -0.7  697  275  +3.6         
06 20.11.17 тихо ()   20000 м    8/0 средняя 
[Ac und]
+11 +0.2 47 +11  1011  0.6  697  270           
09 20.11.17 320 (СЗ) 20000 м    6/0 средняя, верхняя 
[Ac lent|Cc]
+16.3 -3.6 25 +18  1008.2  -1.2  697  265           
12 20.11.17 320 (СЗ) 20000 м    3/0 средняя 
[Ac lent]
+15.6 -2.1 30 +16  1008  -0.3  696  265           
15 20.11.17 тихо ()   10 км    3/0 средняя 
[Ac lent]
+8.3 +1.1 60 +8  1010.1  696  272    +17.7       
18 20.11.17 160 (Ю) 10 км    8/0 средняя 
[Ac trans]
+6.9 -0.7 58 +8  1009.1  -1.3  695  273           
21 20.11.17 340 (С) 10 км    8/0 средняя 
[Ac trans]
+7 -0.9 57 +8  1007  -1.9  694  273           
00 21.11.17 220 (ЮЗ) 10 км    3/0 средняя 
[Ac trans]
+8.5 -0.7 52 +10  1004.5  -1.8  692  271           
03 21.11.17 320 (СЗ) 10 км    ясно 
+6.3 +0 64 +6  1003.8  -1.3  692  272  +5.5         
06 21.11.17 210 (ЮЗ) 3{11}  20000 м    8/0 средняя 
[Ac As]
+17.8 -2.1 26 +18  999.4  -1  691  261           
09 21.11.17 200 (Ю) 4-15{19}  20000 м    5/0 средняя 
[Ac lent]
+20.1 -2.2 22 +20  996.3  -2.2  689  259           
12 21.11.17 190 (Ю) 3{15}  20000 м    6/0 средняя, верхняя 
[Ac lent|Cs]
+18.8 -3.6 22 +19  995.2  -1.4  688  260           
15 21.11.17 320 (СЗ) 2{13}  10 км    8/0 средняя 
[Ac As]
+6.1 +2.6 78 +6  998.2  -0.6  688  270    +20.1       
18 21.11.17 200 (Ю) 5-18{18}  10 км    9/0 средняя 
[Ac As]
+18.3 -2.3 25 +18  992.6  -2  686  259           
21 21.11.17 280 (З) 3{18}  4000 м  дымка  8/0 средняя 
[As trans]
+3.9 +1 81 +3  998.3  1.5  687  273           
00 22.11.17 тихо ()   0500 м  туман  8/0 средняя 
[Ac As]
+5.5 +3.3 86 +6  1003.9  5.6  692  272           
03 22.11.17 010 (С) 10 км  слаб. ливневой дождь{туман}  10/10 300 м кучево-дожд. 
[Cb cap]
+5 +3 87 +4  1007.7  3.3  694  274  +3.2    0.6     
Время (UTC), дата Ветер
(°,м/с) 
Видим.   Явления Облачность Т
(°С)
Тd
(°С)
f(%) Тe
(°С)
Pmin
(гПа)
dP
(гПа)
Po
(мм)
O2
(г/м3)
Тmin Tmax R s Состояние
почвы

Для получения пояснительной информации подведите курсор к названию столбца.

ПОГОДА в Владикавказе - архив

Всё, что Вы хотите узнать о погоде в Владикавказе - удобно и подробно!

Выберите нужную дату (начиная с 1 января 2015* года) и нажмите кнопку "Найти".
Будут отображены архивные сводки погоды по пункту Владикавказ, начиная с указанной даты.


Отображать данные в формате CSV (для использования в таблицах Excel)


Внимание! Наш архив погоды предназначен исключительно для личного некоммерческого использования в познавательных целях. Если Вам необходимы официальные справки о состоянии погоды (для производственных, юридических, коммерческих и т.п. целей), обращайтесь в органы Росгидромета.

*Примечание: данная дата относится к архиву по метеостанциям СССР (Россия, СНГ, Балтия).
Архив по метеостанциям Зарубежной Европы и Азии (кроме Китая) хранится 10 дней, по другим регионам земного шара (Китай, Африка, Америка, Австралия, Океания) - 1 день.

Владикавказ - район местоположения метеостанции


Название, широта, долгота, высота метеостанции:
Владикавказ 43.1°ш. 44.6°д. 703 м над ур. моря [Российская Федерация]

Дополнительная информация

В oтличие oт бoльшинства пoгoдных сайтoв мы публикуем пoдрoбную метеoинфoрмацию в детальнoм прoфессиoнальнoм фoрмате.

Характеристики температуры и влажнoсти вoздуха измеряются на высoте 2 м в тени вдали oт зданий и деревьев.
Скoрoсть ветра измеряется на высoте 10 м (на урoвне рoста челoвека скoрoсть ветра ниже в 1.5-2 раза). Если метеoстанция нахoдится в гoрoде или в лесу, тo скoрoсть ветра занижена на 2-4 м/с пo сравнению с oткрытым местoм. Скoрoсть ветра над акватoриями крупных рек и oзёр, а также на вершинах хoлмoв на 2-5 м/с выше, чем в oбычных услoвиях.
Атмoсфернoе давление в разных тoчках местнoсти мoжет значительнo oтличаться oт давления на метеoстанции, в зависимoсти oт услoвий рельефа (при пoдъёме на 10 м давление пoнижается примернo на 1 мм рт.ст.).